Regional Weather Roundup
Issued by NWS

Home | Current Version | Previous Version | Graphics & Text | Print | Product List | Glossary On
Versions: 1 2 3 4 5 6 7 8 9 10 11 12 13 14 15 16 17 18 19 20 21 22 23 24 25 26 27
000
ASUS45 KSLC 181710
RWRUT

UTAH REGIONAL WEATHER ROUNDUP
NATIONAL WEATHER SERVICE SALT LAKE CITY UT
1000 AM MST SAT NOV 18 2017

UTZ001>011-023>025-181800-

NORTHERN UTAH

CITY           SKY/WX    TMP DP  RH WIND       PRES   REMARKS
BRIGHAM CITY   SUNNY     34  25  70 CALM      30.48R
HILL AFB       SUNNY     30  19  63 E14       30.45R WCI  19
LOGAN          SUNNY     34  22  61 CALM      30.46R
OGDEN          SUNNY     33  21  61 S8        30.45R WCI  26
SALT LAKE CITY MOSUNNY   36  21  54 SE10      30.46S WCI  28
TOOELE VALLEY  SUNNY     34  23  64 S10       30.46S WCI  26
WENDOVER       SUNNY     32  20  61 NE6       30.46F WCI  26
HEBER CITY       N/A     27  18  69 CALM      30.45S
WEST JORDAN    SUNNY     33  26  75 S12       30.47S WCI  25

$$

UTZ011>015-024>027-181800-

CENTRAL/NORTHEAST UTAH

CITY           SKY/WX    TMP DP  RH WIND       PRES   REMARKS
PROVO AIRPORT  SUNNY     33  20  58 CALM      30.49S
MOAB/CANYONLAN SUNNY     40  13  33 CALM      30.44R
DELTA          SUNNY     30  23  74 CALM      30.46F
PRICE          SUNNY     32  13  45 CALM      30.41S
RICHFIELD      SUNNY     25  21  86 CALM      30.48F
ROOSEVELT      SUNNY     30  14  51 E3        30.47S
VERNAL         SUNNY     30  14  51 VRB3      30.45R

$$

UTZ013>016-019>022-027-181800-

SOUTHERN UTAH

CITY           SKY/WX    TMP DP  RH WIND       PRES   REMARKS
BRYCE CANYON   SUNNY     24  15  68 CALM      30.40R
CEDAR CITY     SUNNY     28  19  69 CALM      30.40S
MILFORD        SUNNY     30  22  72 N5        30.44R WCI  25
ST GEORGE      SUNNY     43  12  28 S3        30.43S
HANKSVILLE     SUNNY     34  12  40 CALM      30.48F
KANAB          SUNNY     43  12  28 NE12G18   30.44R
BLANDING         N/A     38   6  26 S5        30.47R WCI  34

$$

REGIONAL REPORTS     COLORADO/ARIZONA

CITY           SKY/WX    TMP DP  RH WIND       PRES   REMARKS
CRAIG, CO      SUNNY     18  14  84 CALM      30.44S
GRAND JUNCTION SUNNY     34  22  61 VRB3      30.46R
RIFLE, CO      SUNNY     25  19  78 CALM      30.48R
MONTROSE, CO   SUNNY     31  17  56 CALM      30.48R
CORTEZ, CO     SUNNY     35  16  45 SE6       30.38R WCI  30
COLORADO CITY    N/A     45  12  26 NE6       30.41S
PAGE, AZ       SUNNY     42  14  32 CALM      30.42S
GRAND CANYON   SUNNY     38   4  24 E16G25    30.37R WCI  29
KINGMAN, AZ    SUNNY     52  17  25 N16       30.31S
FLAGSTAFF, AZ  SUNNY     36   2  23 E15G23    30.36S WCI  27

$$

REGIONAL REPORTS    NEVADA/IDAHO/WYOMING

CITY           SKY/WX    TMP DP  RH WIND       PRES   REMARKS
LAS VEGAS, NV  SUNNY     52  15  23 VRB5      30.38R
ELY, NY        SUNNY     20  14  77 S3        30.41S
ELKO, NV       SUNNY     27  20  75 E5        30.41S WCI  22
POCATELLO, ID  CLOUDY    36  21  54 S9        30.43S WCI  29
BURLEY, ID     SUNNY     35  21  56 S10       30.41F WCI  27
EVANSTON, WY   CLOUDY    17  14  88 SW9       30.38S WCI   6
ROCK SPRINGS,  SUNNY     21  15  78 SW14      30.35R WCI   8

$$




USA.gov is the U.S. government's official web portal to all federal, state and local government web resources and services.